Regional Weather Roundup
Issued by NWS

Home | Current Version | Previous Version | Graphics & Text | Print | Product List | Glossary On
Versions: 1 2 3 4 5 6 7 8 9 10 11 12 13 14 15 16 17 18 19 20 21 22 23 24 25 26 27 28 29 30 31 32 33 34 35 36 37 38 39 40 41 42 43 44 45 46 47 48 49 50
000
ASUS43 KLSX 180207
RWRMO

WEATHER SUMMARY FOR MISSOURI
NATIONAL WEATHER SERVICE SPRINGFIELD MO
900 PM CDT THU AUG 17 2017

NOTE: "FAIR" INDICATES FEW OR NO CLOUDS BELOW 12,000 FEET WITH NO
       SIGNIFICANT WEATHER AND/OR OBSTRUCTIONS TO VISIBILITY.
       CURRENT SKY AND/OR WEATHER CONDITIONS ARE NOT AVAILABLE FOR
       CHILLICOTHE AND FARMINGTON.

MOZ001>031-035>038-043-044-053-054-180300-
...NORTHERN AND WESTERN MISSOURI...

CITY           SKY/WX    TMP DP  RH WIND       PRES   REMARKS
KANSAS CTY INT CLEAR     76  63  64 W3        29.94R
KANSAS C DTWN  CLEAR     79  64  60 NW3       29.92R
LEE`S SUMMIT   CLEAR     74  63  68 SW6       29.94R
ST JOSEPH      CLEAR     67  65  93 CALM      29.92R
CHILLICOTHE      N/A     70  62  76 CALM      29.92R
KIRKSVILLE     CLEAR     72  61  68 W6        29.91R

$$
MOZ066>068-077>081-088>096-101>105-180300-
...SOUTHWEST MISSOURI...

CITY           SKY/WX    TMP DP  RH WIND       PRES   REMARKS
SPRINGFIELD    CLEAR     74  64  71 W6        29.98R
JOPLIN         CLEAR     73  65  75 CALM      29.99R
BRANSON        PTCLDY    75  68  78 CALM      30.00R

$$
MOZ032>034-039>042-045>050-055>058-069>072-180300-
...CENTRAL MISSOURI...

CITY           SKY/WX    TMP DP  RH WIND       PRES   REMARKS
COLUMBIA       CLEAR     71  62  73 W6        29.92R
JEFFERSON CITY CLEAR     75  67  76 CALM      29.91R
ROLLA          CLEAR     68  64  87 SW7       29.96R
SEDALIA        CLEAR     73  65  75 SW6       29.94R
WHITEMAN AFB   CLEAR     73  69  88 W6        29.92R
WARRENSBURG    CLEAR     70  63  78 SW7       29.93R
OSAGE BEACH    CLEAR     70  65  84 CALM      29.96R

$$
MOZ051-052-059>065-180300-
...EAST CENTRAL MISSOURI...

CITY           SKY/WX    TMP DP  RH WIND       PRES   REMARKS
ST LOUIS INTL  PTCLDY    78  65  63 W6        29.90R
SPIRIT OF STL  CLEAR     72  69  90 CALM      29.89R
ST CHARLES     CLEAR     74  66  76 W5        29.88R

$$
MOZ072>076-082>087-097>100-106>115-180300-
...SOUTH CENTRAL AND SOUTHEAST MISSOURI...

CITY           SKY/WX    TMP DP  RH WIND       PRES   REMARKS
CAPE GIRARDEAU PTCLDY    75  72  90 SW5       29.89R
FARMINGTON     CLOUDY    74  67  78 W3        29.93R
POPLAR BLUFF   MOCLDY    76  75  97 CALM      29.90R
WEST PLAINS    CLEAR     73  67  81 W5        29.98R

$$



USA.gov is the U.S. government's official web portal to all federal, state and local government web resources and services.